Tracking 19484 objects as of 19-Jan-2019
HD Live streaming from Space Station
objects crossing your sky now

COSMOS 680

Track COSMOS 680 now!
10-day predictions
COSMOS 680 is classified as:


NORAD ID: 7438
Int'l Code: 1974-072D
Perigee: 1,473.2 km
Apogee: 1,498.5 km
Inclination: 74.0 °
Period: 115.5 minutes
Semi major axis: 7856 km
RCS: 0.7018 m2 (medium)
Launch date: September 19, 1974
Source: Commonwealth of Independent States (former USSR) (CIS)
Launch site: PLESETSK MISSILE AND SPACE COMPLEX (PKMTR)
aabbcc
Your satellite tracking list
Your tracking list is empty




NASA's NSSDC Master Catalog

Two Line Element Set (TLE):
1  7438U 74072D   19018.78459456 -.00000020  00000-0 -29390-4 0  9990
2  7438  74.0356 100.9752 0016079 197.4004 299.7044 12.46603092 17658
Source of the keplerian elements: AFSPC